Location: L�Eglise
(45.6477°N, 1.8029°E)
Time: 12:50:48
(UTC+00:00)

Daily predictions for brighter satellites

Satellite Brightness Start Highest point End
(mag) Time Altitude Azimuth Time Altitude Azimuth Time Altitude Azimuth
Cosmos 1833 Rocket 3.3 17:19:56 10° NNW 17:25:02 34° NE 17:30:07 10° ESE
Lacrosse 5 4.1 17:22:48 10° WNW 17:27:11 30° SW 17:31:32 10° S
H-2A R/B 3.1 17:24:21 10° ESE 17:28:17 23° ENE 17:32:17 10° NNE
NOSS 2-1 (D) 2.8 17:25:30 10° SW 17:28:50 81° SE 17:32:17 10° NE
Meteor 1-21 Rocket 4.2 17:23:23 10° S 17:28:51 66° E 17:34:24 10° NNE
Cosmos 1939 Rocket 3.0 17:26:17 10° SSE 17:30:14 51° ENE 17:34:09 10° N
Cosmos 2344 4.4 17:22:15 10° NW 17:31:10 58° NE 17:43:29 10° ESE
H-2A R/B 2.1 17:27:18 10° NNE 17:31:43 86° ESE 17:35:59 10° SSW
Cosmos 44 3.5 17:27:59 10° SW 17:32:48 76° NW 17:37:58 10° NNE
USA 229 DEB 4.0 17:25:41 10° NW 17:32:55 63° NE 17:40:31 10° SE
USA 229 4.0 17:25:48 10° NW 17:33:02 63° NE 17:40:38 10° SE
Cosmos 1602 Rocket 3.9 17:28:57 10° SSE 17:33:05 45° E 17:37:17 10° NNE
CZ-3B R/B 2.2 17:31:44 10° NW 17:34:10 45° NE 17:40:24 10° ESE
Cosmos 2026 Rocket 4.4 17:28:44 10° SSE 17:34:23 40° E 17:40:09 10° NNE
SeaSat 1 3.9 17:30:58 10° NNE 17:35:27 36° NW 17:39:55 10° WSW
Feng Yun 1-1 Rocket 4.4 17:30:19 10° SE 17:35:38 53° ENE 17:41:06 10° N
SJ 16-02 2.3 17:31:47 10° SW 17:36:03 49° WNW 17:40:20 10° N
Cosmos 2112 Rocket 4.0 17:32:44 10° NNW 17:38:00 80° ENE 17:43:11 10° SSE
FengYun 1-2 T 4.4 17:32:48 10° SSE 17:38:24 84° WSW 17:44:05 10° NNW
Cosmos 990 Rocket 4.0 17:34:17 10° SSW 17:39:28 81° ESE 17:44:40 10° NNE
YAOGAN 1 3.6 17:36:14 10° ESE 17:39:43 24° ENE 17:43:13 10° NNE
Cosmos 1844 Rocket 3.6 17:35:45 10° SW 17:41:13 49° WNW 17:46:43 10° NNE
H-2A R/B 3.7 17:37:37 10° S 17:41:37 48° W 17:45:49 10° NNW
Cosmos 1689 Rocket 3.9 17:41:34 12° E 17:42:06 13° E 17:43:30 10° ESE
Aureole 3 Rocket 3.2 17:40:10 10° N 17:43:12 34° ENE 17:46:54 10° SE
COSMOS 2406 3.4 17:38:54 10° NNW 17:44:34 53° ENE 17:50:10 10° SE
Cosmos 2082 Rocket 3.1 17:39:49 10° N 17:44:45 29° NE 17:49:39 10° ESE
Cosmos 1844 4.4 17:39:40 10° SW 17:45:14 56° WNW 17:50:55 10° NNE
Cosmos 1703 3.1 17:43:13 10° S 17:47:05 75° E 17:50:58 10° NNE
Cosmos 1825 Rocket 4.5 17:44:33 10° SSE 17:48:14 27° E 17:51:59 10° NNE
NOSS 3-1 (A) 4.1 17:41:11 10° NW 17:48:37 68° NE 17:57:14 10° SE
X-37B 0.8 17:45:34 10° W 17:48:45 70° S 17:51:36 12° ESE
IRS-1C Rocket 4.3 17:44:06 10° SE 17:49:08 50° ENE 17:54:12 10° N
ISS -2.4 17:48:33 10° WNW 17:51:34 28° N 17:53:50 15° NE
Cosmos 1812 Rocket 3.5 17:48:06 10° N 17:52:28 68° E 17:56:47 10° SSE
Okean O Rocket 2.6 17:50:41 10° S 17:54:59 52° W 17:59:19 10° NNW
ATLAS 5 CENTAUR R/B 4.1 17:55:19 10° NNW 17:56:53 11° NNW 17:58:30 10° N
CZ-4 R/B 1.7 17:55:29 10° SE 17:59:15 40° ENE 18:02:59 10° N
Iridium 4 Rocket 3.5 17:55:33 10° N 18:00:51 56° E 18:05:39 10° SSE
Cosmos 2195 Rocket 4.5 17:55:36 10° S 18:01:55 76° E 18:08:16 10° N
ERS-2 2.6 17:59:08 10° NNE 18:02:33 37° E 18:05:56 10° SSE
SKYMED 2 3.5 17:58:14 10° NNE 18:02:36 75° ESE 18:06:56 10° S
CSL-04 Rocket 4.4 17:59:03 10° SE 18:03:49 32° ENE 18:08:37 10° N
Okean-O 2.9 18:02:31 10° SE 18:06:45 46° ENE 18:11:00 10° N
CZ-4C R/B 4.4 18:03:39 10° NW 18:07:23 16° N 18:11:33 10° NE
S3M 4.5 18:03:17 10° N 18:08:48 34° ENE 18:14:18 10° SE
Cosmos 1428 Rocket 4.5 18:03:39 10° S 18:09:55 73° E 18:16:13 10° NNE
Cosmos 1340 2.9 18:06:54 10° SSW 18:10:37 70° WNW 18:14:22 10° N
USA 234 4.3 18:05:52 13° NE 18:10:47 33° N 18:16:28 10° WNW
Cosmos 1346 Rocket 3.0 18:07:24 10° SSE 18:11:09 44° E 18:14:55 10° NNE
Cosmos 2278 Rocket 2.2 18:05:48 10° S 18:11:21 61° ESE 18:16:58 10° NNE
Cosmos 1953 Rocket 4.2 18:10:47 10° SSE 18:14:40 33° E 18:17:58 13° NNE
CZ-2C R/B 3.3 18:09:44 10° SSE 18:15:14 89° WSW 18:21:01 10° NNW
Cosmos 2292 Rocket 4.2 18:15:06 10° SSE 18:19:23 31° E 18:20:40 26° ENE
SAR-Lupe-4 3.7 18:17:50 16° NNE 18:20:31 49° E 18:23:59 10° S
Cosmos 44 Rocket 4.0 18:17:10 10° S 18:21:33 34° ESE 18:23:19 26° ENE
Cosmos 405 3.2 18:19:09 10° NNW 18:22:40 70° W 18:26:09 10° S
NOSS 2-1 (E) 4.5 18:21:10 10° WSW 18:24:11 31° NW 18:26:47 14° NNE
ARGOS 3.2 18:23:38 10° SE 18:28:49 52° ENE 18:34:03 10° N
TELKOM 3 4.1 18:27:02 10° WNW 18:28:35 32° NNW 18:28:35 32° NNW
Meteor 2-19 Rocket 4.4 18:24:37 10° S 18:30:47 82° E 18:36:58 10° N
Cosmos 1869 4.0 18:27:18 10° N 18:30:11 32° NE 18:30:11 32° NE
PSLV R/B 3.8 18:29:39 10° NNE 18:33:53 80° ESE 18:38:05 10° S
Cosmos 372 Rocket 3.9 18:29:50 10° SSW 18:35:02 80° ESE 18:39:58 12° NNE
SAR-Lupe-1 3.9 18:34:04 19° NNE 18:36:35 80° ESE 18:40:10 10° S
CZ-4B R/B 3.2 18:34:28 10° N 18:37:25 31° WNW 18:40:17 10° SW
CZ-2C R/B 3.1 18:33:45 10° NNE 18:38:57 40° E 18:44:12 10° SSE
Cosmos 494 Rocket 4.4 18:37:07 10° N 18:41:56 38° ENE 18:42:29 37° ENE
Cosmos 2150 Rocket 4.1 18:39:21 10° S 18:44:18 49° ESE 18:45:58 35° NE
MOS 1 Rocket 4.0 18:41:13 10° N 18:45:20 48° WNW 18:49:31 10° SSW
Cosmos 1048 Rocket 3.9 18:41:57 10° NNW 18:47:03 58° ENE 18:49:36 28° SE
Cosmos-2242 3.5 18:43:06 10° NNW 18:47:20 60° W 18:51:35 10° S
COSMO-SKYMED 1 4.1 18:46:34 10° N 18:50:32 35° WNW 18:54:29 10° SW
Cosmos 2297 4.4 18:47:00 10° SSE 18:51:23 33° ESE 18:51:23 33° ESE
USA 290 4.2 18:52:51 10° NW 18:55:42 30° WSW 18:58:32 10° SSW
SL-08 RB Rocket 3.5 18:59:18 47° SE 19:00:30 70° ENE 19:04:59 10° N
CSL-04 Debris 4.1 18:57:16 10° SSE 19:02:39 84° WSW 19:08:05 10° NNW
Helios 1A Rocket 3.5 19:01:29 10° S 19:05:34 58° WSW 19:09:40 10° NNW
H-2A R/B 2.8 19:02:23 10° S 19:07:18 53° W 19:12:25 10° NNW
Cosmos 1125 Rocket 3.5 19:03:50 10° S 19:08:41 59° ESE 19:08:41 59° ESE
Cosmos 1833 Rocket 3.9 19:03:48 10° NW 19:09:02 42° WSW 19:14:16 10° S
Cosmos 1809 Rocket 4.3 19:03:21 10° S 19:09:27 76° E 19:15:37 10° NNE
Cosmos 2298 Rocket 3.9 19:06:15 10° SSW 19:11:34 90° SSE 19:13:35 40° NNE
Cosmos 1689 Rocket 4.3 19:13:25 25° W 19:13:25 25° W 19:15:35 10° SW
Cosmos 2266 Rocket 3.8 19:07:25 10° S 19:13:37 73° E 19:19:45 10° NNE
YAOGAN 1 4.1 19:11:40 10° SSW 19:15:39 35° W 19:19:39 10° NNW
NOSS 2-2 (C) 4.4 19:14:19 10° NNW 19:19:39 61° NE 19:20:07 59° ENE
In-Cosmos 22 Rocket 4.3 19:17:34 10° SSW 19:23:22 81° W 19:29:04 10° N
X-37B 3.2 19:22:25 10° W 19:23:55 20° WSW 19:23:55 20° WSW
Cosmos 1943 Rocket 4.1 19:22:15 10° S 19:23:18 16° S 19:23:18 16° S
ISS -1.2 19:25:42 10° NW 19:26:49 18° NW 19:26:49 18° NW
Cosmos 2082 Rocket 2.9 19:23:35 10° NW 19:29:09 53° WSW 19:33:42 15° S
CZ-4 R/B 4.2 19:31:40 10° SW 19:34:26 18° W 19:37:11 10° NW
Meteor 2-21 4.5 19:33:11 10° SSW 19:39:15 77° W 19:45:26 10° N
NOSS 2-2 (E) 4.5 19:37:14 10° NW 19:42:55 88° SW 19:43:31 76° SSE
ATLAS 5 CENTAUR R/B 4.4 19:41:54 10° N 19:42:29 11° N 19:42:29 11° N
Cosmos 2315 Rocket 3.9 19:40:26 10° N 19:46:33 85° NW 19:46:33 85° NW
ATLAS 2AS CENTAUR R/B 4.3 19:42:32 10° NNW 19:48:21 23° NNE 19:48:21 23° NNE
USA 234 3.9 19:53:13 40° N 19:53:13 40° N 19:58:51 10° NW
Cosmos 2278 Rocket 4.1 19:51:11 10° WSW 19:55:52 26° NW 19:59:05 16° N
CZ-4C R/B 4.2 19:52:54 10° NNW 19:56:58 24° N 19:56:58 24° N
CZ-2C R/B 4.2 20:15:10 15° N 20:19:06 33° WNW 20:24:03 10° SW
ATLAS 5 CENTAUR R/B 4.4 20:21:11 10° SSW 20:39:15 57° SSW 20:39:15 57° SSW
